FW6287 Bristol RI US current weather conditions

sailwx.info

Wind from 182 at 5 knots gusting 10

Air temperature 12.8° C
Dewpoint 12.2° C

Last reported at 2019-Dec-09 23:01 UTC.
Time now 2019-Dec-09 23:36 UTC

Location: N 41°42' W 071°17'.
View on Google Maps.

See reports from other nearby stations

  
Tides and Currents Weather Stations Pressure Air Temp Water Temp Dewpoint Dewpoint Depression Visibility Wind Speed Wind Dir Waves Ship Positions
date/time (UTC)wind fromknots sea level pressurealtimeterstation pressurevisibilityair tempwater tempwave heightnotes
2019-Dec-09 23:01 182 5 gusting 10 12.8
2019-Dec-09 22:55 210 5 gusting 10 12.8
2019-Dec-09 22:50 217 5 gusting 10 12.8
2019-Dec-09 22:46 163 6 gusting 10 12.8
2019-Dec-09 22:40 225 4 gusting 11 12.2
2019-Dec-09 22:35 211 4 gusting 13 12.2
2019-Dec-09 22:30 169 6 gusting 13 12.2
2019-Dec-09 22:25 155 5 gusting 15 12.2
2019-Dec-09 22:20 224 7 gusting 15 12.2
2019-Dec-09 22:16 224 5 gusting 10 12.2
2019-Dec-09 22:10 138 4 gusting 10 12.2
2019-Dec-09 22:05 187 4 gusting 7 11.7
2019-Dec-09 22:01 236 4 gusting 15 12.2
2019-Dec-09 21:55 211 6 gusting 15 12.2
2019-Dec-09 21:50 165 6 gusting 14 11.7
2019-Dec-09 21:46 199 7 gusting 14 11.7
2019-Dec-09 21:40 209 5 gusting 15 11.7
2019-Dec-09 21:35 262 5 gusting 15 12.8
2019-Dec-09 21:31 184 6 gusting 18 12.8
2019-Dec-09 21:26 224 8 gusting 18 12.8
2019-Dec-09 21:20 148 7 gusting 17 12.8
2019-Dec-09 21:15 214 7 gusting 19 12.8
2019-Dec-09 21:10 189 9 gusting 19 12.8
2019-Dec-09 21:05 220 10 gusting 19 12.8
2019-Dec-09 21:01 162 9 gusting 19 12.8
2019-Dec-09 20:55 116 9 gusting 21 12.8
2019-Dec-09 20:50 236 9 gusting 21 12.8
2019-Dec-09 20:46 188 10 gusting 22 12.8
2019-Dec-09 20:40 141 7 gusting 22 12.8
2019-Dec-09 20:35 162 8 gusting 19 12.8
2019-Dec-09 20:31 174 7 gusting 19 12.8
2019-Dec-09 20:25 162 10 gusting 19 12.8
2019-Dec-09 20:20 134 11 gusting 19 12.2
2019-Dec-09 20:15 174 8 gusting 19 12.2
2019-Dec-09 20:10 179 8 gusting 25 12.2
2019-Dec-09 20:05 162 10 gusting 25 12.2
2019-Dec-09 20:01 218 8 gusting 25 12.2
2019-Dec-09 19:55 182 9 gusting 25 12.2
2019-Dec-09 19:50 212 9 gusting 17 12.2
2019-Dec-09 19:46 209 9 gusting 17 12.2
2019-Dec-09 19:40 130 9 gusting 16 12.2
2019-Dec-09 19:35 195 8 gusting 23 12.2
2019-Dec-09 19:31 174 10 gusting 23 12.8
2019-Dec-09 19:25 211 9 gusting 18 12.8
2019-Dec-09 19:20 209 7 gusting 17 12.8
2019-Dec-09 19:16 118 8 gusting 15 12.8
2019-Dec-09 19:10 172 7 gusting 18 12.8
2019-Dec-09 19:05 191 9 gusting 18 12.8
2019-Dec-09 19:01 127 6 gusting 17 12.8
2019-Dec-09 18:55 139 6 gusting 15 12.8
2019-Dec-09 18:50 221 9 gusting 15 12.8
2019-Dec-09 18:45 173 6 gusting 15 12.8
2019-Dec-09 18:40 131 8 gusting 18 12.2
2019-Dec-09 18:35 198 7 gusting 18 12.2
2019-Dec-09 18:30 152 7 gusting 19 12.2
2019-Dec-09 18:25 222 11 gusting 19 12.2
2019-Dec-09 18:20 124 10 gusting 19 12.2
2019-Dec-09 18:16 204 9 gusting 18 12.2
2019-Dec-09 18:10 154 7 gusting 25 12.2
2019-Dec-09 18:05 172 12 gusting 25 12.2
2019-Dec-09 18:01 150 7 gusting 17 12.2
2019-Dec-09 17:55 163 9 gusting 18 12.8
2019-Dec-09 17:50 184 7 gusting 18 12.8
2019-Dec-09 17:46 123 10 gusting 19 12.8
2019-Dec-09 17:39 209 8 gusting 15 12.2
2019-Dec-09 17:31 240 7 gusting 17 12.2
2019-Dec-09 17:25 122 6 gusting 17 12.2
2019-Dec-09 17:20 153 6 gusting 18 12.2
2019-Dec-09 17:16 184 8 gusting 19 12.2
2019-Dec-09 17:10 204 10 gusting 19 12.2
2019-Dec-09 17:05 220 7 gusting 19 12.2
2019-Dec-09 17:01 157 8 gusting 21 12.2
2019-Dec-09 16:55 184 10 gusting 21 11.7
2019-Dec-09 16:50 146 10 gusting 18 11.7
2019-Dec-09 16:46 196 8 gusting 18 11.1
2019-Dec-09 16:40 144 5 gusting 13 11.1
2019-Dec-09 16:35 195 6 gusting 13 11.7
2019-Dec-09 16:31 131 5 gusting 13 11.7
2019-Dec-09 16:25 160 6 gusting 13 11.7
2019-Dec-09 16:20 191 6 gusting 13 11.7
2019-Dec-09 16:16 191 6 gusting 14 11.7
2019-Dec-09 16:10 188 6 gusting 14 11.1
2019-Dec-09 16:05 160 6 gusting 13 11.1
2019-Dec-09 16:01 171 6 gusting 13 11.1
2019-Dec-09 15:55 207 6 gusting 12 11.1
2019-Dec-09 15:50 192 5 gusting 11 11.1
2019-Dec-09 15:46 166 6 gusting 13 11.1
2019-Dec-09 15:40 162 5 gusting 13 11.1
2019-Dec-09 15:35 180 5 gusting 13 11.1
2019-Dec-09 15:31 186 5 gusting 13 11.1
2019-Dec-09 15:25 139 7 gusting 17 11.1
2019-Dec-09 15:20 205 6 gusting 17 11.1
2019-Dec-09 15:15 141 6 gusting 14 11.1
2019-Dec-09 15:10 220 6 gusting 13 11.1
2019-Dec-09 15:05 195 4 gusting 13 11.1
2019-Dec-09 15:01 194 4 gusting 19 11.1
2019-Dec-09 14:55 207 6 gusting 19 11.1
2019-Dec-09 14:51 236 8 gusting 18 11.1
2019-Dec-09 14:46 153 9 gusting 15 11.1
2019-Dec-09 14:40 224 7 gusting 15 11.1
2019-Dec-09 14:35 174 6 gusting 12 10.6
2019-Dec-09 14:31 131 5 gusting 8 10.6
2019-Dec-09 14:25 166 5 gusting 8 10.6
2019-Dec-09 14:20 161 4 gusting 8 10.6
2019-Dec-09 14:16 217 4 gusting 7 10.6
2019-Dec-09 14:10 176 3 gusting 6 10.6
2019-Dec-09 14:05 184 3 gusting 6 10.6
2019-Dec-09 14:01 243 2 gusting 6 10.6
2019-Dec-09 13:55 172 3 gusting 8 10.6
2019-Dec-09 13:50 198 4 gusting 9 10.0
2019-Dec-09 13:46 202 4 gusting 9 10.0
2019-Dec-09 13:40 188 2 gusting 6 10.0
2019-Dec-09 13:35 231 2 gusting 6 10.0
2019-Dec-09 13:30 224 1 gusting 6 10.0
2019-Dec-09 13:25 179 2 gusting 6 10.0
2019-Dec-09 13:20 158 3 gusting 6 10.0
2019-Dec-09 13:16 210 3 gusting 6 10.0
2019-Dec-09 13:10 182 3 gusting 6 10.0
2019-Dec-09 13:05 234 3 gusting 6 9.4
2019-Dec-09 13:01 170 2 gusting 6 9.4
2019-Dec-09 12:55 157 2 gusting 6 9.4
2019-Dec-09 12:50 156 2 gusting 6 9.4
2019-Dec-09 12:45 137 2 gusting 4 9.4
2019-Dec-09 12:40 185 1 gusting 5 9.4
2019-Dec-09 12:35 205 1 gusting 5 9.4
2019-Dec-09 12:32 200 2 gusting 5 9.4
2019-Dec-09 12:25 224 1 gusting 5 9.4
2019-Dec-09 12:20 158 2 gusting 5 8.9
2019-Dec-09 12:16 160 1 gusting 5 8.9
2019-Dec-09 12:10 201 1 gusting 7 8.9
2019-Dec-09 12:05 142 2 gusting 7 8.9
2019-Dec-09 12:01 194 3 gusting 6 8.9
2019-Dec-09 11:55 193 2 gusting 6 8.9
2019-Dec-09 11:50 230 1 gusting 6 8.9
2019-Dec-09 11:46 136 3 gusting 6 9.4
2019-Dec-09 11:40 221 3 gusting 8 9.4
2019-Dec-09 11:35 195 3 gusting 8 9.4
2019-Dec-09 11:31 214 4 gusting 9 8.9
2019-Dec-09 11:25 174 3 gusting 9 8.9
2019-Dec-09 11:20 164 2 gusting 6 8.9
2019-Dec-09 11:16 198 3 gusting 6 8.9
2019-Dec-09 11:10 180 2 gusting 6 8.9
2019-Dec-09 11:05 188 3 gusting 8 8.9
2019-Dec-09 11:01 238 3 gusting 8 8.9
2019-Dec-09 10:55 169 3 gusting 7 8.9
2019-Dec-09 10:50 158 3 gusting 6 8.9
2019-Dec-09 10:46 191 3 gusting 9 8.9
2019-Dec-09 10:40 151 3 gusting 9 8.9
2019-Dec-09 10:35 150 4 gusting 7 8.9
2019-Dec-09 10:31 164 1 gusting 5 8.3
2019-Dec-09 10:25 212 2 gusting 4 8.3
2019-Dec-09 10:20 190 1 gusting 4 8.3
2019-Dec-09 10:16 232 1 gusting 5 8.3
2019-Dec-09 10:10 160 2 gusting 6 8.3
2019-Dec-09 10:05 184 3 gusting 6 8.3
2019-Dec-09 10:01 214 3 gusting 6 8.3
2019-Dec-09 09:55 207 3 gusting 6 8.3
2019-Dec-09 09:50 172 2 gusting 5 8.3
2019-Dec-09 09:46 214 1 gusting 5 8.3
2019-Dec-09 09:40 151 0 gusting 3 8.3
2019-Dec-09 09:35 169 0 gusting 4 8.3
2019-Dec-09 09:30 195 1 gusting 4 7.8
2019-Dec-09 09:25 139 0 gusting 4 7.8
2019-Dec-09 09:20 204 2 gusting 5 7.8
2019-Dec-09 09:16 205 2 gusting 5 7.8
2019-Dec-09 09:10 152 2 gusting 4 7.8
2019-Dec-09 09:05 205 2 gusting 4 7.8
2019-Dec-09 09:01 160 1 gusting 4 7.8
2019-Dec-09 08:55 213 0 gusting 4 7.8
2019-Dec-09 08:50 166 1 gusting 4 7.8
2019-Dec-09 08:46 143 2 gusting 4 7.8
2019-Dec-09 08:40 171 1 gusting 5 7.8
2019-Dec-09 08:35 193 2 gusting 5 7.8
2019-Dec-09 08:30 212 2 gusting 6 7.8
2019-Dec-09 08:25 174 3 gusting 6 8.3
2019-Dec-09 08:20 183 1 gusting 5 8.3
2019-Dec-09 08:16 171 2 gusting 6 8.3
2019-Dec-09 08:10 204 2 gusting 8 7.8
2019-Dec-09 08:05 146 3 gusting 8 7.8
2019-Dec-09 08:01 210 4 gusting 8 7.8
2019-Dec-09 07:55 222 2 gusting 7 7.2
2019-Dec-09 07:50 152 2 gusting 8 7.2
2019-Dec-09 07:46 229 2 gusting 8 7.2
2019-Dec-09 07:40 212 3 gusting 6 6.7
2019-Dec-09 07:35 135 2 gusting 7 6.7
2019-Dec-09 07:31 191 3 gusting 7 6.7
2019-Dec-09 07:25 206 2 gusting 6 6.7
2019-Dec-09 07:20 211 1 gusting 7 6.7
2019-Dec-09 07:16 209 3 gusting 7 6.7
2019-Dec-09 07:10 164 2 gusting 8 6.7
2019-Dec-09 07:05 159 2 gusting 8 6.7
2019-Dec-09 07:02 224 2 gusting 6 6.7
2019-Dec-09 06:55 140 2 gusting 8 6.7
2019-Dec-09 06:50 172 3 gusting 8 6.7
2019-Dec-09 06:46 236 3 gusting 11 6.7
2019-Dec-09 06:40 198 3 gusting 11 6.7
2019-Dec-09 06:35 208 2 gusting 11 6.7
2019-Dec-09 06:31 148 2 gusting 11 6.7
2019-Dec-09 06:25 241 3 gusting 8 6.7
2019-Dec-09 06:20 124 4 gusting 8 6.7
2019-Dec-09 06:16 217 4 gusting 7 6.7
2019-Dec-09 06:10 204 4 gusting 8 6.7
2019-Dec-09 06:05 177 4 gusting 9 6.7
2019-Dec-09 06:01 152 5 gusting 9 6.7
2019-Dec-09 05:55 142 2 gusting 9 6.7
2019-Dec-09 05:50 175 4 gusting 9 6.7
2019-Dec-09 05:46 224 4 gusting 9 6.7
2019-Dec-09 05:40 145 5 gusting 9 6.7
2019-Dec-09 05:35 217 5 gusting 9 6.7
2019-Dec-09 05:31 192 4 gusting 8 6.7
2019-Dec-09 05:25 231 4 gusting 12 6.7
2019-Dec-09 05:20 207 5 gusting 12 6.7
2019-Dec-09 05:16 224 5 gusting 13 6.7
2019-Dec-09 05:10 242 5 gusting 13 6.7
2019-Dec-09 05:05 155 3 gusting 12 6.1
2019-Dec-09 05:01 181 5 gusting 12 6.1
2019-Dec-09 04:55 210 6 gusting 10 6.1
2019-Dec-09 04:50 203 3 gusting 8 5.6
2019-Dec-09 04:45 202 3 gusting 8 5.6
2019-Dec-09 04:40 198 3 gusting 7 5.6
2019-Dec-09 04:35 113 4 gusting 6 5.6
2019-Dec-09 04:31 168 3 gusting 8 5.6
2019-Dec-09 04:25 167 3 gusting 11 5.6
2019-Dec-09 04:20 207 5 gusting 11 5.6
2019-Dec-09 04:16 200 3 gusting 8 5.6
2019-Dec-09 04:10 167 3 gusting 12 5.6
2019-Dec-09 04:05 160 4 gusting 12 5.6
2019-Dec-09 04:01 246 4 gusting 11 5.0
2019-Dec-09 03:55 221 3 gusting 11 5.0
2019-Dec-09 03:50 223 3 gusting 9 5.0
2019-Dec-09 03:45 146 3 gusting 8 4.4
2019-Dec-09 03:40 136 3 gusting 7 4.4
2019-Dec-09 03:35 211 2 gusting 6 3.9
2019-Dec-09 03:31 161 2 gusting 7 3.3
2019-Dec-09 03:25 210 3 gusting 7 3.3
2019-Dec-09 03:20 200 2 gusting 5 2.8
2019-Dec-09 03:15 228 1 gusting 5 2.2
2019-Dec-09 03:10 238 1 gusting 3 2.2
2019-Dec-09 03:05 220 0 gusting 3 1.7
2019-Dec-09 03:01 224 0 gusting 3 1.1
2019-Dec-09 02:55 223 1.1
2019-Dec-09 02:50 231 1.1
2019-Dec-09 02:45 203 1.1
2019-Dec-09 02:40 200 0 gusting 1 1.1
2019-Dec-09 02:35 226 1.1
2019-Dec-09 02:30 172 1.1
2019-Dec-09 02:25 172 1.1
2019-Dec-09 02:20 150 0 gusting 1 1.1
2019-Dec-09 02:16 169 1.1
2019-Dec-09 02:10 204 0 gusting 1 1.1
2019-Dec-09 02:05 221 1.1
2019-Dec-09 02:01 169 0 gusting 2 1.7
2019-Dec-09 01:55 229 1.7
2019-Dec-09 01:50 207 1 gusting 4 1.7
2019-Dec-09 01:46 213 0 gusting 4 1.7
2019-Dec-09 01:40 257 1 gusting 4 1.7
2019-Dec-09 01:35 238 1 gusting 4 1.1
2019-Dec-09 01:30 233 0 gusting 4 1.1
2019-Dec-09 01:25 208 0 gusting 4 1.1
2019-Dec-09 01:20 254 0 gusting 2 1.1
2019-Dec-09 01:15 225 1.1
2019-Dec-09 01:10 228 1.1
2019-Dec-09 01:05 236 1.1
2019-Dec-09 01:00 239 0 gusting 3 1.1
2019-Dec-09 00:55 240 0 gusting 3 1.1
2019-Dec-09 00:50 238 0 gusting 4 1.1
2019-Dec-09 00:46 248 1 gusting 4 1.1
2019-Dec-09 00:40 264 1 gusting 3 1.1
2019-Dec-09 00:35 210 0 gusting 3 1.1
2019-Dec-09 00:30 224 0 gusting 4 1.1
2019-Dec-09 00:25 233 1 gusting 4 1.1
2019-Dec-09 00:20 233 0 gusting 4 1.1
2019-Dec-09 00:16 231 0 gusting 6 1.1
2019-Dec-09 00:10 239 1 gusting 6 1.1
2019-Dec-09 00:05 215 1 gusting 3 1.1
2019-Dec-09 00:00 230 0 gusting 3 1.1
2019-Dec-08 23:55 221 0 gusting 2 1.1
2019-Dec-08 23:50 300 0 gusting 4 1.1
2019-Dec-08 23:47 221 1 gusting 4 1.7
2019-Dec-08 23:40 254 1 gusting 4 1.7
2019-Dec-08 23:35 226 1 gusting 5 1.7
2019-Dec-08 23:31 255 2 gusting 6 1.7
2019-Dec-08 23:25 255 1 gusting 6 1.7
2019-Dec-08 23:20 288 2 gusting 6 1.7
2019-Dec-08 23:16 256 1 gusting 4 1.7
2019-Dec-08 23:10 209 1 gusting 3 1.7
2019-Dec-08 23:05 278 0 gusting 6 1.7
2019-Dec-08 23:01 217 0 gusting 6 1.7
2019-Dec-08 22:55 254 1 gusting 4 1.7
2019-Dec-08 22:50 245 0 gusting 4 1.7
2019-Dec-08 22:46 243 1 gusting 4 1.7
2019-Dec-08 22:40 235 0 gusting 4 1.7
2019-Dec-08 22:35 221 2 gusting 5 1.7
2019-Dec-08 22:31 226 1 gusting 5 1.7
2019-Dec-08 22:25 233 1 gusting 4 1.7
2019-Dec-08 22:20 219 1 gusting 6 1.7
2019-Dec-08 22:16 223 2 gusting 6 1.7
2019-Dec-08 22:10 214 1 gusting 5 1.7
2019-Dec-08 22:05 243 1 gusting 5 1.7
2019-Dec-08 22:00 233 0 gusting 6 2.2
2019-Dec-08 21:55 244 2 gusting 6 2.2
2019-Dec-08 21:50 220 1 gusting 7 2.2
2019-Dec-08 21:46 228 3 gusting 7 2.2
2019-Dec-08 21:40 153 2 gusting 6 2.2
2019-Dec-08 21:35 245 3 gusting 7 2.2
2019-Dec-08 21:31 193 3 gusting 7 2.2
2019-Dec-08 21:25 217 3 gusting 7 2.2
2019-Dec-08 21:20 226 2 gusting 8 2.2
2019-Dec-08 21:16 193 3 gusting 8 2.2
2019-Dec-08 21:10 218 1 gusting 8 2.2
2019-Dec-08 21:05 223 3 gusting 8 2.2
2019-Dec-08 21:01 212 2 gusting 7 2.2
2019-Dec-08 20:55 180 2 gusting 5 2.2
2019-Dec-08 20:50 223 2 gusting 6 2.2
2019-Dec-08 20:45 212 2 gusting 8 2.2
2019-Dec-08 20:40 166 4 gusting 8 2.2
2019-Dec-08 20:35 217 3 gusting 8 2.2
2019-Dec-08 20:31 203 3 gusting 11 2.2
2019-Dec-08 20:25 214 1 gusting 11 2.2
2019-Dec-08 20:20 212 4 gusting 13 2.2
2019-Dec-08 20:16 188 3 gusting 13 2.2
2019-Dec-08 20:10 198 3 gusting 9 2.2
2019-Dec-08 20:05 204 2 gusting 12 2.2
2019-Dec-08 20:01 182 5 gusting 12 2.2
2019-Dec-08 19:55 241 4 gusting 9 2.2
2019-Dec-08 19:50 169 3 gusting 7 2.2
2019-Dec-08 19:45 176 3 gusting 10 2.2
2019-Dec-08 19:40 214 3 gusting 10 2.2
2019-Dec-08 19:35 199 2 gusting 8 2.2
2019-Dec-08 19:31 204 3 gusting 9 2.2
2019-Dec-08 19:25 232 3 gusting 10 2.2
2019-Dec-08 19:20 211 4 gusting 10 2.2
2019-Dec-08 19:16 240 5 gusting 9 2.2
2019-Dec-08 19:10 249 4 gusting 7 2.2
2019-Dec-08 19:05 205 2 gusting 9 2.2
2019-Dec-08 19:01 203 4 gusting 9 2.2
2019-Dec-08 18:55 199 5 gusting 11 2.2
2019-Dec-08 18:50 259 5 gusting 11 2.2
2019-Dec-08 18:46 171 4 gusting 12 2.2
2019-Dec-08 18:40 228 3 gusting 12 2.2
2019-Dec-08 18:35 204 5 gusting 12 2.2
2019-Dec-08 18:31 219 5 gusting 12 2.2
2019-Dec-08 18:25 238 4 gusting 9 2.2
2019-Dec-08 18:20 208 5 gusting 10 2.2
2019-Dec-08 18:15 203 5 gusting 10 2.2
2019-Dec-08 18:10 166 4 gusting 9 2.2
2019-Dec-08 18:05 219 2 gusting 10 2.2
2019-Dec-08 18:00 283 4 gusting 10 2.2
2019-Dec-08 17:55 164 5 gusting 10 2.2
2019-Dec-08 17:50 180 3 gusting 9 2.2
2019-Dec-08 17:46 214 5 gusting 9 2.2
2019-Dec-08 17:40 158 4 gusting 9 1.7
2019-Dec-08 17:35 121 4 gusting 9 1.7
2019-Dec-08 17:31 238 2 gusting 6 1.7
2019-Dec-08 17:25 160 3 gusting 6 1.7
2019-Dec-08 17:20 230 2 gusting 7 1.7
2019-Dec-08 17:16 172 3 gusting 7 1.1
2019-Dec-08 17:10 231 2 gusting 8 1.1
2019-Dec-08 17:05 204 3 gusting 8 1.1
2019-Dec-08 17:00 254 4 gusting 7 1.1
2019-Dec-08 16:55 200 4 gusting 9 1.1
2019-Dec-08 16:50 132 5 gusting 9 0.6
2019-Dec-08 16:45 212 2 gusting 8 0.6
2019-Dec-08 16:40 200 5 gusting 8 0.6
2019-Dec-08 16:35 200 3 gusting 8 0.6
2019-Dec-08 16:31 166 2 gusting 6 0.6
2019-Dec-08 16:25 150 2 gusting 6 0.6
2019-Dec-08 16:20 181 2 gusting 6 0.6
2019-Dec-08 16:16 168 3 gusting 6 -0.0
2019-Dec-08 16:10 168 2 gusting 8 -0.0
2019-Dec-08 16:05 233 2 gusting 8 -0.0
2019-Dec-08 16:01 154 3 gusting 6 -0.6
2019-Dec-08 15:55 190 1 gusting 6 -0.0
2019-Dec-08 15:50 219 4 gusting 6 -0.0
2019-Dec-08 15:46 195 3 gusting 6 -0.6
2019-Dec-08 15:40 118 2 gusting 6 -0.6
2019-Dec-08 15:35 145 2 gusting 7 -0.6
2019-Dec-08 15:31 231 4 gusting 7 -1.1
2019-Dec-08 15:25 203 2 gusting 6 -1.1
2019-Dec-08 15:20 137 3 gusting 6 -1.1
2019-Dec-08 15:16 148 3 gusting 6 -1.1
2019-Dec-08 15:10 215 2 gusting 5 -1.1
2019-Dec-08 15:05 217 1 gusting 6 -1.1
2019-Dec-08 15:00 231 3 gusting 6 -1.7
2019-Dec-08 14:55 148 1 gusting 3 -1.7
2019-Dec-08 14:50 167 1 gusting 5 -1.7
2019-Dec-08 14:46 204 3 gusting 5 -2.2
2019-Dec-08 14:40 155 0 gusting 3 -2.2
2019-Dec-08 14:35 206 1 gusting 3 -2.2
2019-Dec-08 14:31 157 0 gusting 3 -2.2
2019-Dec-08 14:25 211 0 gusting 3 -2.2
2019-Dec-08 14:20 168 0 gusting 2 -2.8
2019-Dec-08 14:16 198 0 gusting 2 -2.8
2019-Dec-08 14:10 -2.8
2019-Dec-08 14:05 216 0 gusting 1 -2.8
2019-Dec-08 14:01 198 0 gusting 1 -3.3
2019-Dec-08 13:55 197 0 gusting 1 -3.9
2019-Dec-08 13:50 210 0 gusting 1 -3.9
2019-Dec-08 13:46 152 0 gusting 1 -3.9
2019-Dec-08 13:40 148 -4.4
2019-Dec-08 13:35 -4.4
2019-Dec-08 13:31 -5.0
2019-Dec-08 13:25 -5.0
2019-Dec-08 13:20 -5.6
2019-Dec-08 13:15 068 -6.1
2019-Dec-08 13:10 069 -6.1
2019-Dec-08 13:05 -6.7
2019-Dec-08 13:01 056 -7.2
2019-Dec-08 12:55 -7.8
2019-Dec-08 12:50 -7.8
2019-Dec-08 12:46 -8.3
2019-Dec-08 12:40 -8.3
2019-Dec-08 12:35 -8.3
2019-Dec-08 12:31 -8.3
2019-Dec-08 12:25 -8.3
2019-Dec-08 12:20 -8.3
2019-Dec-08 12:16 -8.3
2019-Dec-08 12:10 050 -8.3
2019-Dec-08 12:05 -8.9
2019-Dec-08 12:00 -8.9
2019-Dec-08 11:55 -8.3
2019-Dec-08 11:50 -8.9
2019-Dec-08 11:46 -8.3
2019-Dec-08 11:40 -8.3
2019-Dec-08 11:35 -8.3
2019-Dec-08 11:30 -8.3
2019-Dec-08 11:25 -8.3
2019-Dec-08 11:20 323 -7.8
2019-Dec-08 11:15 323 -7.8
2019-Dec-08 11:10 -7.8
2019-Dec-08 11:05 -7.8
2019-Dec-08 11:01 323 -7.8
2019-Dec-08 10:55 323 -7.8
2019-Dec-08 10:50 -7.8
2019-Dec-08 10:45 -7.8
2019-Dec-08 10:40 323 -7.8
2019-Dec-08 10:35 323 -7.8
2019-Dec-08 10:31 -7.8
2019-Dec-08 10:25 323 -7.8
2019-Dec-08 10:20 -7.8
2019-Dec-08 10:16 323 -7.2
2019-Dec-08 10:10 323 -7.2
2019-Dec-08 10:05 323 -7.2
2019-Dec-08 10:01 323 -7.2
2019-Dec-08 09:55 323 -7.2
2019-Dec-08 09:50 323 -7.2
2019-Dec-08 09:47 323 -6.7
2019-Dec-08 09:40 323 -6.7
2019-Dec-08 09:35 -6.7
2019-Dec-08 09:31 323 -6.7
2019-Dec-08 09:25 030 -6.7
2019-Dec-08 09:20 -6.7
2019-Dec-08 09:15 309 -6.7
2019-Dec-08 09:10 017 -6.7
2019-Dec-08 09:05 322 -6.1
2019-Dec-08 09:01 326 0 gusting 2 -6.7
2019-Dec-08 08:55 321 -6.7
2019-Dec-08 08:50 -6.7
2019-Dec-08 08:47 -6.7
2019-Dec-08 08:40 -6.1
2019-Dec-08 08:35 323 0 gusting 1 -6.1
2019-Dec-08 08:31 337 0 gusting 1 -6.7
2019-Dec-08 08:25 318 -6.1
2019-Dec-08 08:20 311 -6.1
2019-Dec-08 08:17 334 -6.1
2019-Dec-08 08:10 316 -6.1
2019-Dec-08 08:05 -6.1
2019-Dec-08 08:01 284 -6.1
2019-Dec-08 07:55 -6.1
2019-Dec-08 07:50 275 -6.1
2019-Dec-08 07:46 326 0 gusting 2 -6.1
2019-Dec-08 07:40 046 0 gusting 2 -6.1
2019-Dec-08 07:35 295 -6.1
2019-Dec-08 07:31 306 -6.1
2019-Dec-08 07:25 -6.1
2019-Dec-08 07:20 238 -6.1
2019-Dec-08 07:16 -6.1
2019-Dec-08 07:10 -6.1
2019-Dec-08 07:05 -6.1
2019-Dec-08 07:01 -6.1
2019-Dec-08 06:55 226 -6.1
2019-Dec-08 06:50 274 -6.1
2019-Dec-08 06:45 301 -6.1
2019-Dec-08 06:40 -5.6
2019-Dec-08 06:35 301 -5.6
2019-Dec-08 06:31 -5.6
2019-Dec-08 06:25 -5.6
2019-Dec-08 06:20 312 -5.0
2019-Dec-08 06:16 334 -5.0
2019-Dec-08 06:10 035 0 gusting 1 -5.0
2019-Dec-08 06:05 -5.0
2019-Dec-08 06:01 346 0 gusting 2 -5.0
2019-Dec-08 05:55 354 -5.0
2019-Dec-08 05:50 347 0 gusting 2 -5.0
2019-Dec-08 05:46 307 0 gusting 3 -5.0
2019-Dec-08 05:40 002 0 gusting 3 -5.0
2019-Dec-08 05:35 346 -5.0
2019-Dec-08 05:30 319 0 gusting 1 -5.0
2019-Dec-08 05:25 310 0 gusting 1 -4.4
2019-Dec-08 05:20 292 0 gusting 1 -4.4
2019-Dec-08 05:16 -4.4
2019-Dec-08 05:10 035 0 gusting 1 -4.4
2019-Dec-08 05:05 307 0 gusting 1 -4.4
2019-Dec-08 05:01 300 0 gusting 1 -4.4
2019-Dec-08 04:55 343 0 gusting 1 -4.4
2019-Dec-08 04:50 292 -4.4
2019-Dec-08 04:45 311 0 gusting 3 -4.4
2019-Dec-08 04:40 304 0 gusting 3 -4.4
2019-Dec-08 04:35 297 0 gusting 3 -4.4
2019-Dec-08 04:31 293 0 gusting 1 -4.4
2019-Dec-08 04:25 283 -4.4
2019-Dec-08 04:20 302 -4.4
2019-Dec-08 04:16 259 -5.0
2019-Dec-08 04:10 -5.0
2019-Dec-08 04:05 -5.0
2019-Dec-08 04:01 -5.0
2019-Dec-08 03:55 -4.4
2019-Dec-08 03:50 -4.4
2019-Dec-08 03:46 -3.9
2019-Dec-08 03:40 -3.9
2019-Dec-08 03:35 011 -3.9
2019-Dec-08 03:30 -3.9
2019-Dec-08 03:25 278 -3.9
2019-Dec-08 03:20 330 -3.9
2019-Dec-08 03:16 325 0 gusting 3 -3.9
2019-Dec-08 03:10 297 -3.9
2019-Dec-08 03:05 281 0 gusting 3 -3.9
2019-Dec-08 03:00 -3.9
2019-Dec-08 02:55 297 0 gusting 2 -3.3
2019-Dec-08 02:50 304 -3.3
2019-Dec-08 02:46 304 -3.3
2019-Dec-08 02:40 305 0 gusting 2 -3.3
2019-Dec-08 02:35 031 0 gusting 2 -3.3
2019-Dec-08 02:30 254 -3.3
2019-Dec-08 02:25 320 -3.3
2019-Dec-08 02:20 297 0 gusting 2 -3.3
2019-Dec-08 02:16 315 -3.3
2019-Dec-08 02:10 -3.3
2019-Dec-08 02:05 324 0 gusting 1 -3.3
2019-Dec-08 02:01 320 -3.3
2019-Dec-08 01:55 -3.3
2019-Dec-08 01:50 306 -3.3
2019-Dec-08 01:45 321 -3.3
2019-Dec-08 01:40 358 -3.3
2019-Dec-08 01:35 309 -3.3
2019-Dec-08 01:31 317 -3.3
2019-Dec-08 01:25 281 -3.3
2019-Dec-08 01:20 281 -3.3
2019-Dec-08 01:15 308 -2.8
2019-Dec-08 01:10 333 -2.8
2019-Dec-08 01:05 308 0 gusting 1 -2.8
2019-Dec-08 01:01 323 -2.8
2019-Dec-08 00:55 344 0 gusting 2 -2.8
2019-Dec-08 00:50 323 0 gusting 3 -2.2
2019-Dec-08 00:46 038 -2.2
2019-Dec-08 00:40 309 0 gusting 6 -2.2
2019-Dec-08 00:35 301 1 gusting 5 -2.2
2019-Dec-08 00:31 338 1 gusting 5 -2.2
2019-Dec-08 00:25 296 1 gusting 5 -2.2
2019-Dec-08 00:20 103 0 gusting 6 -2.2
2019-Dec-08 00:15 322 2 gusting 6 -2.2
2019-Dec-08 00:10 006 1 gusting 6 -1.7
2019-Dec-08 00:05 285 0 gusting 6 -2.2
2019-Dec-08 00:01 046 1 gusting 6 -1.7
2019-Dec-07 23:55 308 1 gusting 6 -1.7
2019-Dec-07 23:50 315 0 gusting 4 -1.7
2019-Dec-07 23:46 354 1 gusting 4 -1.7
2019-Dec-07 23:40 280 1 gusting 3 -1.7
2019-Dec-07 23:35 283 -1.7
2019-Dec-07 23:31 351 1 gusting 3 -1.7
2019-Dec-07 23:25 305 0 gusting 3 -1.7
2019-Dec-07 23:20 304 0 gusting 3 -1.7
2019-Dec-07 23:16 269 0 gusting 3 -1.7
2019-Dec-07 23:10 -1.7
2019-Dec-07 23:05 326 0 gusting 3 -1.1
2019-Dec-07 23:01 317 1 gusting 6 -1.1